| time (UTC) | temp F | wind direction | speed MPH | gust MPH | rain 1hr in | rain 24hr in | rain mn in | humidity % | barometer mb |
| 20260508230018 | 54 | 334 | 0.0 | 2.0 | 0.00 | 0.00 | 0.00 | 94 | 1029.8 |
| 20260508224509 | 53 | 16 | 0.0 | 3.0 | 0.00 | 0.00 | 0.00 | 95 | 1029.7 |
| 20260508223052 | 52 | 36 | 0.0 | 1.0 | 0.00 | 0.00 | 0.00 | 94 | 1029.5 |
| 20260508221555 | 51 | 34 | 0.0 | 0.0 | 0.00 | 0.00 | 0.00 | 94 | 1029.5 |
| 20260508220048 | 50 | 17 | 1.0 | 2.0 | 0.00 | 0.00 | 0.00 | 94 | 1029.4 |
| 20260508214548 | 50 | 22 | 0.0 | 2.0 | 0.00 | 0.00 | 0.00 | 94 | 1029.3 |
| 20260508213047 | 49 | 29 | 2.0 | 3.0 | 0.00 | 0.00 | 0.00 | 94 | 1029.2 |
| 20260508211546 | 49 | 337 | 0.0 | 0.0 | 0.00 | 0.00 | 0.00 | 94 | 1029.1 |
| 20260508210046 | 48 | 48 | 0.0 | 0.0 | 0.00 | 0.00 | 0.00 | 93 | 1029.0 |
| 20260508204545 | 48 | 35 | 0.0 | 0.0 | 0.00 | 0.00 | 0.00 | 93 | 1028.9 |
| 20260508203033 | 48 | 40 | 0.0 | 2.0 | 0.00 | 0.00 | 0.00 | 93 | 1028.9 |
| 20260508201534 | 47 | 40 | 2.0 | 4.0 | 0.00 | 0.00 | 0.00 | 93 | 1028.6 |
| 20260508200033 | 47 | 76 | 0.0 | 1.0 | 0.00 | 0.00 | 0.00 | 93 | 1028.5 |
| 20260508194533 | 47 | 48 | 0.0 | 2.0 | 0.00 | 0.00 | 0.00 | 93 | 1028.4 |
| 20260508193025 | 47 | 31 | 1.0 | 2.0 | 0.00 | 0.00 | 0.00 | 91 | 1028.3 |
| 20260508191533 | 48 | 93 | 1.0 | 3.0 | 0.00 | 0.00 | 0.00 | 92 | 1028.1 |
| 20260508190032 | 48 | 99 | 2.0 | 2.0 | 0.00 | 0.00 | 0.00 | 92 | 1028.1 |
| 20260508184520 | 48 | 90 | 0.0 | 1.0 | 0.00 | 0.00 | 0.00 | 91 | 1028.1 |
| 20260508183005 | 49 | 96 | 1.0 | 3.0 | 0.00 | 0.00 | 0.00 | 91 | 1028.1 |
| 20260508181503 | 50 | 72 | 0.0 | 0.0 | 0.00 | 0.00 | 0.00 | 91 | 1028.3 |
| 20260508180104 | 50 | 72 | 0.0 | 0.0 | 0.00 | 0.00 | 0.00 | 90 | 1028.3 |
| 20260508174608 | 51 | 67 | 0.0 | 2.0 | 0.00 | 0.00 | 0.00 | 89 | 1028.3 |
| 20260508173055 | 52 | 85 | 0.0 | 2.0 | 0.00 | 0.00 | 0.00 | 89 | 1028.4 |
| 20260508171552 | 53 | 141 | 2.0 | 4.0 | 0.00 | 0.00 | 0.00 | 89 | 1028.4 |
| 20260508170051 | 53 | 182 | 3.0 | 5.0 | 0.00 | 0.00 | 0.00 | 90 | 1028.4 |
| 20260508164550 | 53 | 154 | 3.0 | 0.0 | 0.00 | 0.00 | 0.00 | 89 | 1028.4 |
| 20260508163053 | 54 | 154 | 3.0 | 5.0 | 0.00 | 0.00 | 0.00 | 88 | 1028.3 |
| 20260508161530 | 55 | 184 | 4.0 | 7.0 | 0.00 | 0.00 | 0.00 | 88 | 1028.4 |
| 20260508160029 | 55 | 175 | 6.0 | 9.0 | 0.00 | 0.00 | 0.00 | 88 | 1028.4 |
| 20260508154510 | 54 | 172 | 3.0 | 4.0 | 0.00 | 0.00 | 0.00 | 88 | 1028.4 |
| 20260508153008 | 54 | 188 | 2.0 | 4.0 | 0.00 | 0.00 | 0.00 | 88 | 1028.5 |
| 20260508151554 | 54 | 172 | 3.0 | 5.0 | 0.00 | 0.00 | 0.00 | 87 | 1028.5 |
| 20260508150050 | 55 | 171 | 5.0 | 8.0 | 0.00 | 0.00 | 0.00 | 88 | 1028.6 |
| 20260508144550 | 55 | 167 | 6.0 | 8.0 | 0.00 | 0.00 | 0.00 | 88 | 1028.6 |
| 20260508143047 | 55 | 174 | 2.0 | 4.0 | 0.00 | 0.00 | 0.00 | 87 | 1028.7 |
| 20260508141610 | 55 | 164 | 3.0 | 4.0 | 0.00 | 0.00 | 0.00 | 87 | 1028.8 |
| 20260508140144 | 55 | 183 | 1.0 | 5.0 | 0.00 | 0.00 | 0.00 | 86 | 1028.8 |
| 20260508134554 | 55 | 181 | 5.0 | 8.0 | 0.00 | 0.00 | 0.00 | 86 | 1028.9 |
| 20260508133038 | 56 | 168 | 5.0 | 9.0 | 0.00 | 0.00 | 0.00 | 86 | 1029.1 |
| 20260508131524 | 56 | 172 | 6.0 | 8.0 | 0.00 | 0.00 | 0.00 | 85 | 1029.1 |
| 20260508130021 | 56 | 176 | 1.0 | 4.0 | 0.00 | 0.00 | 0.00 | 84 | 1029.2 |
| 20260508124521 | 57 | 159 | 3.0 | 5.0 | 0.00 | 0.00 | 0.00 | 84 | 1029.2 |
| 20260508123027 | 57 | 154 | 4.0 | 7.0 | 0.00 | 0.00 | 0.00 | 83 | 1029.3 |
| 20260508121518 | 57 | 154 | 6.0 | 8.0 | 0.00 | 0.00 | 0.00 | 84 | 1029.3 |
| 20260508120018 | 56 | 151 | 4.0 | 6.0 | 0.00 | 0.00 | 0.00 | 85 | 1029.2 |
| 20260508114517 | 56 | 145 | 3.0 | 5.0 | 0.00 | 0.00 | 0.00 | 84 | 1029.2 |
| 20260508113016 | 57 | 154 | 3.0 | 5.0 | 0.00 | 0.00 | 0.00 | 83 | 1029.1 |
| 20260508111518 | 58 | 154 | 4.0 | 7.0 | 0.00 | 0.00 | 0.00 | 81 | 1029.0 |
| 20260508110015 | 58 | 159 | 5.0 | 9.0 | 0.00 | 0.00 | 0.00 | 80 | 1029.0 |
| 20260508104519 | 59 | 217 | 9.0 | 14.0 | 0.00 | 0.00 | 0.00 | 83 | 1028.9 |
| 20260508103016 | 60 | 200 | 10.0 | 15.0 | 0.00 | 0.00 | 0.00 | 81 | 1028.9 |
| 20260508101518 | 60 | 202 | 11.0 | 16.0 | 0.00 | 0.00 | 0.00 | 77 | 1029.0 |
| 20260508100013 | 60 | 180 | 7.0 | 11.0 | 0.00 | 0.00 | 0.00 | 78 | 1028.9 |
| 20260508094511 | 60 | 185 | 7.0 | 12.0 | 0.00 | 0.00 | 0.00 | 79 | 1028.7 |
| 20260508093014 | 60 | 167 | 9.0 | 13.0 | 0.00 | 0.00 | 0.00 | 77 | 1028.7 |
| 20260508091510 | 60 | 204 | 8.0 | 13.0 | 0.00 | 0.00 | 0.00 | 76 | 1028.6 |
| 20260508090020 | 60 | 187 | 10.0 | 14.0 | 0.00 | 0.00 | 0.00 | 79 | 1028.7 |
| 20260508084506 | 60 | 197 | 12.0 | 18.0 | 0.00 | 0.00 | 0.00 | 79 | 1028.5 |
| 20260508083006 | 60 | 187 | 10.0 | 14.0 | 0.00 | 0.00 | 0.00 | 81 | 1028.5 |
| 20260508081554 | 60 | 217 | 12.0 | 17.0 | 0.00 | 0.00 | 0.00 | 79 | 1028.4 |
| 20260508080049 | 60 | 199 | 12.0 | 17.0 | 0.00 | 0.00 | 0.00 | 81 | 1028.3 |
| 20260508074551 | 60 | 211 | 14.0 | 19.0 | 0.00 | 0.00 | 0.00 | 84 | 1028.2 |
| 20260508073048 | 60 | 175 | 9.0 | 14.0 | 0.00 | 0.00 | 0.00 | 85 | 1028.2 |
| 20260508071547 | 60 | 189 | 9.0 | 15.0 | 0.00 | 0.00 | 0.00 | 82 | 1028.2 |
| 20260508070045 | 60 | 177 | 10.0 | 16.0 | 0.00 | 0.00 | 0.00 | 85 | 1028.2 |
| 20260508064545 | 60 | 223 | 11.0 | 15.0 | 0.00 | 0.00 | 0.00 | 83 | 1028.2 |
| 20260508063048 | 62 | 204 | 12.0 | 17.0 | 0.00 | 0.00 | 0.00 | 81 | 1028.1 |
| 20260508061528 | 61 | 216 | 14.0 | 19.0 | 0.00 | 0.00 | 0.00 | 78 | 1028.2 |
| 20260508060032 | 62 | 232 | 15.0 | 21.0 | 0.00 | 0.00 | 0.00 | 77 | 1028.2 |
| 20260508054525 | 63 | 206 | 15.0 | 19.0 | 0.00 | 0.00 | 0.00 | 76 | 1028.0 |
| 20260508053033 | 62 | 215 | 15.0 | 19.0 | 0.00 | 0.00 | 0.00 | 76 | 1028.0 |
| 20260508051511 | 63 | 200 | 11.0 | 18.0 | 0.00 | 0.00 | 0.00 | 77 | 1028.1 |
| 20260508050050 | 62 | 219 | 10.0 | 16.0 | 0.00 | 0.00 | 0.00 | 80 | 1028.3 |
| 20260508044532 | 61 | 234 | 12.0 | 16.0 | 0.00 | 0.00 | 0.00 | 84 | 1028.4 |
| 20260508043029 | 61 | 213 | 11.0 | 18.0 | 0.00 | 0.00 | 0.00 | 83 | 1028.4 |
| 20260508041510 | 60 | 211 | 13.0 | 20.0 | 0.00 | 0.00 | 0.00 | 86 | 1028.6 |
| 20260508040011 | 59 | 279 | 8.0 | 15.0 | 0.00 | 0.00 | 0.00 | 89 | 1028.7 |
| 20260508034552 | 61 | 248 | 13.0 | 19.0 | 0.00 | 0.00 | 0.00 | 84 | 1028.8 |
| 20260508033050 | 60 | 217 | 11.0 | 16.0 | 0.00 | 0.00 | 0.00 | 88 | 1029.1 |
| 20260508031547 | 61 | 221 | 15.0 | 19.0 | 0.00 | 0.00 | 0.00 | 82 | 1029.2 |
| 20260508030047 | 61 | 240 | 10.0 | 18.0 | 0.00 | 0.00 | 0.00 | 81 | 1029.3 |
| 20260508024543 | 61 | 242 | 11.0 | 17.0 | 0.00 | 0.00 | 0.00 | 79 | 1029.5 |
| 20260508023043 | 61 | 230 | 10.0 | 19.0 | 0.00 | 0.00 | 0.00 | 82 | 1029.7 |
| 20260508021547 | 60 | 223 | 14.0 | 19.0 | 0.00 | 0.00 | 0.00 | 81 | 1029.8 |
| 20260508020039 | 62 | 239 | 10.0 | 15.0 | 0.00 | 0.00 | 0.00 | 76 | 1029.9 |
| 20260508014526 | 61 | 231 | 9.0 | 14.0 | 0.00 | 0.00 | 0.00 | 77 | 1030.1 |
| 20260508013033 | 60 | 215 | 11.0 | 19.0 | 0.00 | 0.00 | 0.00 | 78 | 1030.3 |
| 20260508011520 | 61 | 235 | 13.0 | 20.0 | 0.00 | 0.00 | 0.00 | 76 | 1030.5 |
| 20260508010017 | 60 | 218 | 8.0 | 14.0 | 0.00 | 0.00 | 0.00 | 77 | 1030.5 |
| 20260508004529 | 59 | 233 | 11.0 | 19.0 | 0.00 | 0.00 | 0.00 | 78 | 1030.5 |
| 20260508003012 | 59 | 225 | 11.0 | 17.0 | 0.00 | 0.00 | 0.00 | 76 | 1030.3 |
| 20260508001516 | 60 | 223 | 13.0 | 18.0 | 0.00 | 0.00 | 0.00 | 76 | 1030.2 |
| 20260508000009 | 59 | 231 | 10.0 | 18.0 | 0.00 | 0.00 | 0.00 | 75 | 1030.2 |
| 20260507234552 | 59 | 220 | 10.0 | 14.0 | 0.00 | 0.00 | 0.00 | 75 | 1030.2 |
| 20260507233048 | 59 | 215 | 10.0 | 16.0 | 0.00 | 0.00 | 0.00 | 74 | 1030.2 |
| 20260507231547 | 59 | 218 | 11.0 | 16.0 | 0.00 | 0.00 | 0.00 | 74 | 1030.1 |